www.pogodaiklimat.ru

Погода и климат >> Архив погоды >> Финляндия >> Хельсинки


АРХИВ ПОГОДЫ в Хельсинки

Время (UTC), дата Ветер
(напр.,м/с)
 
Видим.   Явления Облачность Т
(С)
Тd
(С)
f
(%)
Тe
(С)
Тes
(С)
Комфортность P
(гПа)
Po
(гПа)
Тmin
(С)
Tmax
(С)
R
(мм)
R24
(мм)
S
(см)
01 17.03 Ю 3 700 м туман 9/9 50 м
[]
+1.2 +1.2 100 -4 -4 тепло 998.0 991.4
02 17.03 Ю 2 2900 м в посл. час туман 10/10 200 м
[]
+1.0 +1.0 100 -3 -3 тепло 998.2 991.5
03 17.03 ЮВ 3-3
{4}
400 м туман {дождь} ?/? +1.0 +1.0 100 -4 -4 по сезону 998.2 991.5
04 17.03 Ю 2 200 м туман ?/? +1.1 +1.0 99 -3 -3 тепло 998.3 991.7
05 17.03 Ю 3 1800 м дождь 10/10 50 м
[]
+0.8 +0.8 100 -4 -4 тепло 998.7 992.1
06 17.03 Ю 3 800 м туман {дождь} ?/? +0.9 +0.9 100 -4 -4 по сезону 999.2 992.6 +0.8 +1.6 2 26
07 17.03 Ю 4 11 км в посл. час туман 10/10 50 м
[]
+0.9 +0.9 100 -5 -5 тепло 999.4 992.8
08 17.03 Ю 4 3400 м дымка 10/10 50 м
[]
+1.0 +1.0 100 -5 -5 по сезону 999.6 993.0
09 17.03 Ю 5-7
{8}
20 км слаб. морось {туман} 10/0 100 м
[]
+1.3 +1.3 100 -5 -4 по сезону 1000.1 993.5
10 17.03 Ю 5 50 км 10/10 200 м
[]
+1.8 +1.0 94 -4 -4 тепло 1000.3 993.7
11 17.03 ЮВ 6-8
{8}
50 км 10/0 1000 м
[]
+2.1 +0.7 90 -4 -4 по сезону 999.5 992.9
12 17.03 ЮВ 6-10
{10}
50 км {морось, туман} 10/0 300 м
[]
+2.0 -0.4 84 -4 -3 по сезону 999.3 992.7
13 17.03 ЮВ 7 50 км 10/10 600 м
[]
+2.1 -0.1 85 -4 -4 тепло 998.7 992.1
14 17.03 ЮВ 8 35 км осадки 10/10 600 м
[]
+1.8 -0.1 87 -5 -5 по сезону 997.9 991.3
15 17.03 ЮВ 10-13
{13}
1500 м дождь со снегом 10/0 200 м
[]
0.0 0.0 100 -9 -9 прохладно 996.8 990.2 0.5
16 17.03 ЮВ 10-14
{15}
200 м снег 10/10 100 м
[]
0.0 0.0 100 -9 -9 тепло 996.5 989.8 1
17 17.03 ЮВ 10 100 м снег 10/10 100 м
[]
0.0 0.0 100 -9 -9 по сезону 995.5 988.9
18 17.03 ЮВ 9 5000 м слаб. снег {дождь} 10/10 100 м
[Frnb]
0.0 0.0 100 -8 -8 по сезону 994.6 988.0 0.0 +2.2 4
19 17.03 ЮВ 8-12
{12}
7000 м слаб. снег 10/0 100 м
[]
+0.9 +0.9 100 -7 -7 тепло 994.2 987.6 1
20 17.03 Ю 8 6000 м слаб. дождь 10/10 100 м
[]
+2.1 +2.1 100 -5 -5 тепло 993.8 987.2
21 17.03 Ю 8-11
{13}
8000 м слаб. дождь 10/0 100 м
[]
+2.6 +2.6 100 -4 -4 по сезону 993.8 987.3 1
22 17.03 Ю 7 5000 м слаб. дождь 10/10 100 м
[]
+2.8 +2.8 100 -4 -4 тепло 994.3 987.7
23 17.03 Ю 6 30 км в посл. час дождь 10/10 100 м
[]
+3.1 +3.1 100 -3 -3 тепло 994.3 987.8
00 18.03 Ю 5-6
{8}
10 км слаб. дождь 10/0 50 м
[]
+3.1 +3.1 100 -2 -2 тепло 994.2 987.6
01 18.03 Ю 5 40 км слаб. ливневой дождь 10/10 100 м
[]
+3.1 +3.1 100 -2 -2 тепло 994.3 987.8
02 18.03 Ю 7-10
{10}
7000 м дождь 10/10 200 м
[]
+3.1 +3.0 99 -3 -3 тепло 994.4 987.9 2
03 18.03 Ю 9-14
{14}
10 км слаб. дождь 10/0 200 м
[]
+2.7 +2.5 99 -5 -5 по сезону 995.2 988.6 1
04 18.03 Ю 8 30 км в посл. час морось 10/10 200 м
[]
+2.6 +2.4 99 -4 -4 тепло 995.4 988.8
05 18.03 Ю 6 35 км 10/10 200 м
[]
+2.4 +1.9 96 -4 -4 тепло 995.8 989.2
06 18.03 Ю 8 30 км {дождь} 9/9 300 м
[Sc]
+2.4 +1.3 92 -4 -4 по сезону 996.5 989.9 0.0 +3.5 10 28
07 18.03 Ю 7-10
{11}
45 км 10/0 300 м
[]
+2.5 +1.4 92 -4 -4 тепло 996.9 990.3
08 18.03 Ю 8 45 км 10/10 600 м
[]
+2.8 +1.3 90 -4 -4 тепло 997.4 990.8
09 18.03 Ю 8-11
{11}
10 км слаб. дождь 10/0 300 м
[]
+2.9 +1.6 91 -4 -3 по сезону 998.1 991.5 0.1
10 18.03 Ю 8 16 км слаб. ливневой дождь 10/10 300 м
[]
+3.1 +1.7 91 -4 -4 тепло 998.5 991.9
11 18.03 Ю 9 40 км в посл. час дождь 10/10 600 м
[]
+3.7 +1.4 85 -3 -3 по сезону 998.8 992.2
12 18.03 Ю 7-9
{11}
30 км в посл. час дождь 10/0 600 м
[]
+3.6 +1.3 85 -2 -2 по сезону 999.4 992.8
13 18.03 Ю 8 35 км 10/10 600 м
[]
+3.5 +1.1 84 -3 -3 тепло 999.6 993.0
14 18.03 Ю 7 50 км 10/10 600 м
[]
+3.5 +1.1 84 -3 -3 тепло 999.9 993.3
15 18.03 Ю 6-9
{11}
40 км {дождь} 9/9 600 м
[]
+3.1 +1.1 87 -3 -3 по сезону 1000.3 993.7
16 18.03 Ю 7 50 км 9/9 600 м
[]
+3.1 +1.0 86 -3 -3 тепло 1000.7 994.1
17 18.03 Ю 6 50 км 10/10 600 м
[]
+2.9 +1.3 89 -3 -3 тепло 1001.5 994.8
18 18.03 Ю 5 40 км слаб. дождь 10/10 300 м
[Sc]
+3.1 +1.4 89 -2 -2 по сезону 1001.9 995.3 +2.3 +3.8 0.4
19 18.03 Ю 6-7
{9}
45 км слаб. ливневой дождь 10/0 600 м
[]
+2.7 +1.4 91 -3 -3 тепло 1002.1 995.5 0.4
20 18.03 Ю 6 27 км слаб. ливневой дождь 10/10 300 м
[]
+2.7 +1.3 90 -3 -3 тепло 1002.2 995.6
21 18.03 Ю 6-8
{8}
15 км слаб. дождь 10/0 300 м
[]
+2.7 +1.1 89 -3 -3 по сезону 1002.2 995.6 0.2
22 18.03 ЮВ 5 15 км слаб. дождь 10/10 300 м
[]
+2.1 +1.4 95 -4 -4 тепло 1002.3 995.7
23 18.03 Ю 6 50 км слаб. ливневой дождь 10/10 300 м
[]
+2.4 +1.3 92 -4 -4 тепло 1002.5 995.8
00 19.03 Ю 5-7
{8}
10 км слаб. дождь 10/0 200 м
[]
+1.8 +1.5 98 -4 -4 по сезону 1002.6 995.9
01 19.03 Ю 4-6
{8}
10 км слаб. дождь 10/10 100 м
[]
+1.7 +1.6 99 -4 -4 тепло 1002.6 996.0 0.5
02 19.03 Ю 4 5000 м в посл. час морось 10/10 100 м
[]
+1.7 +1.5 99 -4 -4 тепло 1003.1 996.4
03 19.03 Ю 4-5
{6}
5000 м слаб. морось {дождь} 10/0 100 м
[]
+1.7 +1.7 100 -4 -4 по сезону 1003.4 996.7 0.3
04 19.03 Ю 4 5000 м слаб. дождь 10/10 100 м
[]
+1.6 +1.6 100 -4 -4 тепло 1003.7 997.0
05 19.03 Ю 2 2800 м слаб. дождь 10/10 100 м
[]
+1.3 +1.3 100 -2 -2 тепло 1004.3 997.6
06 19.03 Ю 3 12 км слаб. ливневой дождь 10/10 100 м
[]
+1.8 +1.8 100 -3 -3 по сезону 1004.7 998.0 +1.3 +3.2 3 25
07 19.03 Ю 3-4
{4}
12 км в посл. час морось 10/0 100 м
[]
+1.9 +1.9 100 -3 -3 тепло 1005.2 998.5
08 19.03 Ю 3 10 км 10/10 100 м
[]
+2.2 +2.2 100 -2 -2 тепло 1005.9 999.2
09 19.03 ЮЗ 2-3
{3}
10 км {морось} 10/0 50 м
[]
+2.8 +2.3 97 -1 +2 по сезону 1006.6 1000.0
10 19.03 Ю 3 50 км 10/10 200 м
[]
+3.1 +2.2 94 -1 -1 тепло 1007.3 1000.6
11 19.03 СЗ 3 50 км 10/10 300 м
[]
+3.3 +2.2 92 -1 -1 тепло 1007.9 1001.2
12 19.03 З 3-4
{5}
9000 м слаб. дождь {морось} 10/0 100 м
[]
+2.7 +2.4 98 -2 0 по сезону 1008.8 1002.1
13 19.03 СЗ 4 35 км слаб. дождь 9/9 200 м
[]
+2.8 +2.1 95 -2 -2 тепло 1009.3 1002.6
14 19.03 С 3 50 км морось 10/10 100 м
[]
+2.7 +2.2 97 -2 -2 тепло 1010.2 1003.5
15 19.03 С 3-4
{5}
30 км слаб. дождь 9/9 100 м
[]
+2.7 +2.3 97 -2 -2 по сезону 1011.1 1004.4 0.1
16 19.03 СЗ 3 50 км слаб. морось 10/10 300 м
[]
+2.9 +2.5 97 -1 -1 тепло 1012.0 1005.3
17 19.03 СЗ 4 50 км в посл. час осадки 10/10 200 м
[]
+2.4 +2.2 99 -3 -3 тепло 1012.8 1006.2
18 19.03 СЗ 4 8000 м слаб. морось {дождь} 10/10 100 м
[St]
+2.1 +1.7 97 -3 -3 по сезону 1014.1 1007.4 +1.8 +5.0 0.4
19 19.03 СЗ 5 45 км 10/10 100 м
[]
+1.9 +1.5 97 -4 -4 тепло 1015.0 1008.3
20 19.03 СЗ 3-5
{8}
50 км 10/0 100 м
[]
+1.4 +1.1 98 -3 -3 тепло 1015.5 1008.8
21 19.03 СЗ 4-5
{6}
30 км {морось} 10/0 200 м
[]
+1.2 +0.6 96 -4 -4 по сезону 1016.2 1009.5
22 19.03 СЗ 4 50 км 10/10 200 м
[]
+1.0 +0.3 95 -4 -4 тепло 1016.6 1009.9
23 19.03 СЗ 4 50 км 10/10 200 м
[]
+0.8 +0.2 96 -5 -5 тепло 1017.3 1010.5
00 20.03 СЗ 4-6
{7}
40 км {морось} 10/0 200 м
[]
+0.5 -0.2 95 -5 -5 по сезону 1017.8 1011.0
01 20.03 З 4-6
{7}
50 км 10/10 200 м
[]
0.0 -0.5 96 -6 -6 тепло 1018.0 1011.2
02 20.03 З 4-7
{7}
50 км 10/0 200 м
[]
-0.4 -1.0 96 -6 -6 тепло 1018.3 1011.5
03 20.03 З 3-5
{7}
50 км 10/0 200 м
[]
-0.3 -1.1 94 -5 -5 по сезону 1018.4 1011.6
04 20.03 З 3 3400 м слаб. снег 10/10 300 м
[]
-0.5 -0.8 98 -6 -6 тепло 1018.3 1011.5
05 20.03 З 3 2100 м слаб. ливневой снег 10/10 200 м
[]
-0.7 -0.9 99 -6 -6 тепло 1018.7 1011.9
06 20.03 З 6 40 км {снег} 9/9 200 м
[Sc]
-1.0 -2.7 88 -8 -8 по сезону 1018.7 1011.9 -1.0 +2.2 0.3 22
07 20.03 З 5-6
{9}
50 км 4/0 300 м
[]
-0.6 -2.9 84 -7 -6 тепло 1018.4 1011.6
08 20.03 ЮЗ 5-7
{7}
45 км ясно +0.6 -2.6 79 -5 -3 по сезону 1018.1 1011.4
09 20.03 ЮЗ 6-8
{10}
40 км 9/0 200 м
[Ci sp]
+1.7 -1.3 80 -4 -3 по сезону 1017.6 1010.9
10 20.03 Ю 6-8
{10}
50 км 1/0 300 м
[]
+2.1 -0.3 84 -4 -2 тепло 1016.6 1009.9
11 20.03 ЮЗ 8 50 км 3/3
[]
+2.6 -1.5 74 -4 -3 по сезону 1015.8 1009.0
12 20.03 ЮЗ 9-13
{13}
40 км 10/0 1500 м
[]
+2.8 -2.5 68 -4 -4 по сезону 1014.6 1007.9
13 20.03 ЮЗ 9-12
{14}
9000 м осадки 10/10 300 м
[]
+1.8 +0.1 88 -6 -6 тепло 1013.9 1007.2
14 20.03 ЮЗ 8 8000 м слаб. дождь со снегом 10/10 200 м
[]
+1.1 +0.8 98 -6 -6 по сезону 1012.9 1006.2
15 20.03 ЮЗ 6-9
{13}
2000 м слаб. дождь со снегом {морось} 10/0 100 м
[]
+0.6 +0.6 100 -6 -6 по сезону 1012.7 1006.0 0.3
16 20.03 ЮЗ 5 29 км в посл. час снег 10/10 100 м
[]
+0.9 +0.9 100 -5 -5 тепло 1012.8 1006.0
17 20.03 З 6 50 км 10/10 100 м
[]
+1.2 +1.1 99 -5 -5 по сезону 1012.9 1006.2
18 20.03 З 7 50 км 10/10 200 м
[]
+1.4 +0.9 96 -5 -5 по сезону 1013.1 1006.4 -1.0 +2.8 1
19 20.03 З 6 50 км 9/9 200 м
[]
+1.3 +0.5 94 -5 -5 тепло 1013.8 1007.1
20 20.03 З 6 50 км 9/9 200 м
[]
+1.0 +0.6 97 -6 -6 по сезону 1014.2 1007.4
21 20.03 З 4-6
{6}
50 км 3/0 100 м
[]
+0.5 +0.3 99 -5 -5 по сезону 1014.5 1007.7
22 20.03 З 5 50 км ясно +0.2 +0.1 99 -6 -6 тепло 1014.7 1007.9
23 20.03 З 5 50 км ясно +0.7 +0.1 96 -5 -5 тепло 1015.0 1008.2
00 21.03 З 5-6
{7}
50 км 1/0
[Ci sp]
+0.6 -0.2 94 -6 -6 по сезону 1015.3 1008.6
01 21.03 З 4 50 км ясно 0.0 -0.6 96 -6 -6 тепло 1015.6 1008.8
02 21.03 З 4-5
{6}
50 км ясно +0.6 -0.8 90 -5 -5 тепло 1015.8 1009.0
03 21.03 З 4-5
{7}
50 км 4/0
[Ci sp]
0.0 -0.9 94 -6 -6 по сезону 1016.4 1009.6
04 21.03 З 5 50 км 1/0
[]
-0.4 -1.1 95 -7 -7 тепло 1016.6 1009.8
05 21.03 З 4 50 км ясно -0.2 -1.1 94 -6 -6 тепло 1016.6 1009.8
06 21.03 З 4 50 км 6/0
[Ci fib]
+1.4 -0.6 87 -4 -3 по сезону 1016.6 1009.8 -0.6 +1.4 20
07 21.03 З 4 50 км ясно +2.8 -0.1 81 -2 -0 тепло 1016.8 1010.0
08 21.03 З 3-5
{5}
50 км ясно +3.8 +0.1 77 0 +3 тепло 1016.6 1009.9
09 21.03 ЮЗ 4-6
{6}
50 км 8/0
[Ci fib]
+5.2 -0.8 65 +1 +4 тепло 1015.8 1009.1
10 21.03 ЮЗ 4 50 км ясно +5.8 -0.6 63 +2 +6 тепло 1015.5 1008.9
11 21.03 ЮЗ 5 50 км ясно +5.7 +0.2 68 +2 +5 тепло 1014.5 1007.8
12 21.03 Ю 5-7
{7}
50 км 9/0 2000 м
[Ac As]
+5.2 +1.8 79 +1 +2 по сезону 1013.6 1006.9
13 21.03 ЮЗ 5 40 км 1/1 2000 м
[]
+4.7 +1.3 79 0 +2 тепло 1013.1 1006.4
14 21.03 Ю 6-7
{7}
21 км 8/0 2000 м
[]
+3.5 +1.9 89 -2 -2 тепло 1011.9 1005.3
15 21.03 ЮЗ 5-7
{7}
20 км 10/10 200 м
[]
+3.2 +2.0 92 -2 -2 по сезону 1011.7 1005.0
18 21.03 З 4 3000 м слаб. морось {дождь} 10/10 50 м
[St]
+2.8 +2.8 100 -2 -2 по сезону 1011.1 1004.5 +1.4 +6.0 0.0
19 21.03 СЗ 7-9
{9}
15 км 9/3 100 м
[]
+3.7 +3.5 99 -3 -3 тепло 1011.4 1004.8
20 21.03 З 6-8
{10}
20 км 9/9
[]
+3.4 +2.5 94 -2 -2 тепло 1011.8 1005.1
21 21.03 СЗ 6-8
{8}
45 км 5/0
[]
+3.6 +0.9 82 -2 -2 по сезону 1011.6 1005.0
22 21.03 СЗ 8-13
{13}
50 км 9/9
[]
+3.8 -1.1 70 -2 -2 тепло 1012.5 1005.9
23 21.03 СЗ 9 50 км 5/5
[]
+3.2 -3.6 61 -3 -3 тепло 1013.5 1006.8
00 22.03 СЗ 7-12
{16}
50 км ясно +2.1 -4.9 60 -4 -4 по сезону 1014.5 1007.7
01 22.03 СЗ 7-11
{14}
50 км ясно +1.8 -5.4 59 -4 -4 тепло 1015.5 1008.8
02 22.03 СЗ 9 50 км ясно +1.5 -6.1 57 -5 -5 тепло 1016.5 1009.7
03 22.03 СЗ 9-13
{15}
50 км 1/0
[Ci fib]
+1.1 -5.8 60 -6 -6 по сезону 1017.6 1010.9
04 22.03 СЗ 9 50 км ясно +0.7 -5.8 62 -6 -6 тепло 1018.5 1011.7
05 22.03 СЗ 9 50 км ясно +0.6 -5.6 63 -7 -7 по сезону 1019.6 1012.8
06 22.03 СЗ 9 50 км ясно +1.5 -5.6 59 -5 -5 по сезону 1020.7 1014.0 +0.5 +4.0 0.0 16
07 22.03 СЗ 9 35 км ясно +2.1 -5.5 57 -5 -4 тепло 1021.6 1014.9
08 22.03 СЗ 11-14
{18}
45 км ясно +2.9 -5.4 54 -4 -4 по сезону 1022.7 1016.0
09 22.03 СЗ 11-16
{18}
50 км ясно +3.8 -6.8 46 -3 -3 по сезону 1023.5 1016.8
10 22.03 СЗ 12-18
{18}
45 км ясно +4.6 -7.9 40 -2 -2 тепло 1024.2 1017.5
11 22.03 С 10-15
{17}
45 км ясно +5.4 -7.6 39 -0 0 тепло 1024.6 1017.9
12 22.03 С 9-13
{16}
50 км 1/0
[Ac lent]
+6.3 -8.9 33 +2 +2 по сезону 1025.1 1018.4
13 22.03 СЗ 10-15
{16}
50 км ясно +6.2 -9.5 31 +1 +1 тепло 1025.3 1018.7
14 22.03 СЗ 7 50 км ясно +6.6 -8.6 33 +3 +3 тепло 1026.0 1019.3
15 22.03 СЗ 7-10
{15}
50 км 1/0
[Ci fib]
+6.3 -9.1 32 +2 +2 тепло 1026.2 1019.6
16 22.03 СЗ 4 50 км ясно +5.8 -8.1 36 +3 +3 тепло 1027.1 1020.3
17 22.03 З 4 50 км ясно +3.6 -5.5 51 -0 -0 тепло 1027.7 1021.0
18 22.03 З 3 50 км ясно +1.9 -4.3 63 -2 -2 по сезону 1027.8 1021.0 +1.5 +6.6
19 22.03 З 2 50 км ясно +0.9 -4.5 67 -2 -2 тепло 1027.5 1020.7
20 22.03 З 2-2
{3}
50 км ясно -0.1 -4.4 73 -3 -3 тепло 1027.2 1020.3
21 22.03 ЮЗ 3-4
{4}
50 км 5/0
[Ci fib]
+0.1 -4.6 71 -4 -4 по сезону 1027.3 1020.4
22 22.03 Ю 2 50 км 4/1
[]
0.0 -4.6 71 -3 -3 тепло 1026.4 1019.5
23 22.03 Ю 3-4
{4}
50 км 6/0
[]
+0.3 -4.6 70 -4 -4 тепло 1025.9 1019.0
00 23.03 Ю 4-5
{5}
50 км 9/9
[Ac trans]
+0.4 -4.6 69 -5 -5 по сезону 1024.9 1018.1
01 23.03 Ю 4-5
{6}
50 км 9/4 2000 м
[]
+0.3 -2.6 81 -5 -5 тепло 1024.0 1017.2
02 23.03 Ю 5 50 км 9/0
[]
+0.6 -2.0 83 -5 -5 тепло 1023.4 1016.6
03 23.03 Ю 6-8
{9}
50 км 8/0
[Ac trans]
+0.7 -2.1 82 -6 -6 по сезону 1021.9 1015.1
04 23.03 Ю 7-10
{11}
50 км 9/0
[]
+0.8 -3.3 74 -6 -6 тепло 1020.9 1014.2
05 23.03 Ю 8 50 км 9/9
[]
+1.0 -3.7 71 -6 -6 по сезону 1019.7 1013.0
06 23.03 Ю 10 50 км 10/10 600 м
[]
+1.7 -5.2 60 -5 -5 по сезону 1018.2 1011.4 -0.8 +1.9 21
07 23.03 Ю 12-15
{17}
50 км 10/10 600 м
[]
+2.1 -5.4 58 -5 -5 тепло 1016.8 1010.1
08 23.03 ЮЗ 10-14
{16}
50 км 10/0 600 м
[]
+2.5 -3.2 66 -4 -4 по сезону 1015.6 1008.8
09 23.03 ЮЗ 10-14
{15}
50 км 10/0 300 м
[]
+2.6 +0.3 85 -5 -5 по сезону 1014.2 1007.5
10 23.03 ЮЗ 9 50 км 10/10 200 м
[]
+2.6 +1.4 92 -5 -5 по сезону 1013.5 1006.8
11 23.03 ЮЗ 10-14
{16}
3600 м морось 10/0 100 м
[]
+2.5 +2.3 99 -5 -5 по сезону 1012.6 1005.9 0.1
12 23.03 ЮЗ 9-13
{14}
10 км слаб. дождь {морось} 10/0 100 м
[]
+2.9 +2.8 99 -4 -4 прохладно 1011.2 1004.5 0.2
13 23.03 ЮЗ 9-13
{13}
4500 м в посл. час дождь 10/0 100 м
[]
+3.1 +3.1 100 -4 -4 тепло 1010.3 1003.6 0.1
14 23.03 ЮЗ 8 13 км 10/10 100 м
[]
+3.3 +3.3 100 -3 -3 по сезону 1009.9 1003.2
15 23.03 ЮЗ 6-9
{10}
700 м туман {дождь} ?/? +3.4 +3.4 100 -3 -3 по сезону 1009.5 1002.9
16 23.03 ЮЗ 6 4800 м в посл. час туман 10/10 50 м
[]
+3.6 +3.6 100 -2 -2 тепло 1009.1 1002.4
17 23.03 ЮЗ 5 7000 м дымка 10/10 100 м
[]
+3.6 +3.6 100 -2 -2 тепло 1008.9 1002.2
18 23.03 ЮЗ 5 9000 м дымка {дождь, туман} 10/10 200 м
[]
+3.2 +3.0 99 -2 -2 по сезону 1008.5 1001.8 +1.7 +3.7 0.4
19 23.03 ЮЗ 4 9000 м дымка 9/9 100 м
[]
+2.4 +2.2 99 -3 -3 тепло 1008.1 1001.4
20 23.03 ЮЗ 3-4
{6}
5000 м дымка 10/0 100 м
[]
+1.8 +1.8 100 -3 -3 тепло 1007.8 1001.2
21 23.03 ЮЗ 2-3
{5}
20 км 1/0 50 м
[]
+0.7 +0.7 100 -3 -3 по сезону 1007.4 1000.7
22 23.03 ЮЗ 3 10 км ясно +0.5 +0.5 100 -4 -4 тепло 1007.0 1000.3
23 23.03 ЮЗ 5-6
{6}
22 км ясно +0.6 +0.1 96 -6 -6 тепло 1006.4 999.7
00 24.03 З 5-6
{7}
40 км 3/0
[Ci fib]
+0.8 -0.7 90 -5 -5 по сезону 1006.1 999.4
01 24.03 З 6 50 км ясно +1.7 -0.9 83 -4 -4 по сезону 1005.8 999.1

 

Местоположение метеостанции Хельсинки (Финляндия): широта 60.33 долгота 24.96 высота над уровнем моря 51 м.

В архиве по умолчанию представлена погода в Хельсинки за последнюю неделю. Архивные данные за месяц целиком и за предыдущие месяцы, начиная с января 2011 года, Вы можете получить, выбрав интересующий диапазон дат из раскрывающегося списка и нажав кнопку "Ввод!".


*Определитесь, кто Вы:
робот инопланетянин человек

Внимание! Время в таблицах - всемирное. Для получения местного времени необходимо прибавить поправку, которая равна 1 ч.

Смотрите также архив погоды в соседних городах и на ближайших метеорологических станциях:

Погода в Хельсинки университете (Финляндия) (14 км)
Погода в Хельсинки Кайсаниеми (Финляндия) (17 км)
Погода в Эспо Тапиола (Финляндия) (19 км)
Погода в Эспо Нууксио (Финляндия) (22 км)
Погода на Острове Хармая (Финляндия) (26 км)
Погода в Нурмиярви (Финляндия) (26 км)
Погода в Хювинкяа (Финляндия) (31 км)
Погода в Вихти (Финляндия) (32 км)
Погода в Килпилахти (Финляндия) (33 км)
Погода на Острове Синго (Финляндия) (36 км)

Пояснения к столбцам:

Ветер - указаны скорость ветра в м/с - средняя за 10 мин, порывы в срок и между сроками (в фигурных скобках) и направление, откуда дует ветер: С - северный, СВ - северо-восточный, В - восточный, ЮВ - юго-восточный, Ю - южный, ЮЗ - юго-западный, З - западный, СЗ - северо-западный.
Видимость - горизонтальная дальность видимости в метрах или километрах. При видимости от 1 до 10 км при отсутствии осадков обычно наблюдается дымка, при ухудшении видимости до 1 км и менее - туман. В сухую погоду видимость может ухудшаться дымом, пылью или мглою.
Явления - указаны атмосферные явления, наблюдавшиеся в срок или в последний час перед сроком; фигурными скобками обозначены явления, наблюдавшиеся между сроками (за 1-3 часа до срока); квадратными скобками обозначены град или гололедные отложения с указанием их диаметра в мм.
Облачность - указаны через наклонную черту общая и нижняя облачность в баллах и высота нижней границы облаков в метрах; квадратными скобками обозначены формы облаков: Ci - перистые, Cs - перисто-слоистые, Cc - перисто-кучевые, Ac - высококучевые, As - высокослоистые, Sc - слоисто-кучевые, Ns - слоисто-дождевые, Cu - кучевые, Cb - кучево-дождевые. Подробнее классификацию облаков см. в Атласе облаков (PDF).
T - Температура воздуха - температура, измеренная на высоте 2 м над землей.
Td - Температура точки росы - температура, при понижении до которой содержащийся в воздухе водяной пар достигнет насыщения.
f - Относительная влажность воздуха - влажноcть воздуха, измеренная на высоте 2 м над землей.
Te - Эффективная температура - температура, которую ощущает одетый по сезону человек в тени. Характеристика душности погоды. При расчете учитывается влияние влажности воздуха и скорости ветра на теплоощущения человека.
Tes - Эффективная температура на солнце - температура, которую ощущает человек, с поправкой на солнечный нагрев. Характеристика знойности погоды. Зависит от высоты солнца над горизонтом, облачности и скорости ветра. Ночью, в пасмурную погоду, а также при ветре 12 м/с и более поправка равна нулю.
P - Атмосферное давление - приведенное к уровню моря атмосферное давление.
Po - Атмосферное давление - измеренное на уровне метеостанции атмосферное давление.
Tmin - Минимальная температура - минимум температуры воздуха на высоте 2 м над землей.
Tmax - Максимальная температура - максимум температуры воздуха на высоте 2 м над землей.
R - Количество осадков - Количество выпавших осадков за период времени, мм. При наведении курсора мыши на число - период времени, за который выпало указанное количество осадков.
R24 - Количество осадков - Количество выпавших осадков за 24 часа, мм.
S - Снежный покров - Высота снежного покрова, см. При наведении курсора мыши на число - состояние снежного покрова и степень покрытия местности в баллах.